Starlink 30122

operational
NORAD ID: 56688 Int'l Des: 2023-067 Owner: SPXS Country: US Constellation: starlink
LEOCIRCULAR

Über Starlink 30122

Beschreibung wird geladen...

Live-Position

3D-Globus wird geladen...

Nächste Überflüge

Höhenverlauf

Altitude vs Time

uPlot chart will show altitude changes over time

Zweizeiliger Elementsatz

1 56688U 23067A 25308.11325830 -.00000830 00000-0 -46404-4 0 9997
2 56688 43.0033 237.3311 0000784 264.3672 95.7081 15.02536955136839
Epoch: 4. Nov. 2025 • Age: 7 hours

Aktueller Status

Höhe 562.2 km
Geschwindigkeit 7.59 km/s
Subsatellitenpunkt 40.60°N, 116.72°E
Startdatum 19. Mai 2023
Alter 2.4 years
Typ internet

Technische Details

Klassifizierung Payload
Masse 730.00 kg
Trockenmasse 700.00 kg
Gesamtmasse 730.00 kg
Länge 0.30 m
Durchmesser 4.10 m
Spannweite 29.00 m
Form Box + pan
Hersteller SPXS
Bus-Typ Starlink V2M
Phasenstatus In Orbit
Besitzer/Staat SPXS/US

Große Konstellationen

Loading constellations...